Regional Weather Roundup
Issued by NWS

Home | Current Version | Previous Version | Graphics & Text | Print | Product List | Glossary On
Versions: 1 2 3 4 5 6 7 8 9 10 11 12 13 14 15 16 17 18 19 20 21 22 23 24 25 26 27 28 29 30 31 32 33 34 35 36 37 38 39 40 41 42 43 44 45 46 47 48 49 50
000
ASUS43 KIND 202259
RWRIN

WEATHER ROUNDUP FOR INDIANA
NATIONAL WEATHER SERVICE INDIANAPOLIS IN
600 PM EST MON FEB 20 2017

NOTE: "FAIR" INDICATES FEW OR NO CLOUDS BELOW 12,000 FEET WITH NO
SIGNIFICANT WEATHER AND/OR OBSTRUCTIONS TO VISIBILITY.

* - STATION DOES NOT REPORT WEATHER SUCH AS PRECIPITATION OR FOG.

+ - STATION NOT QUALITY CONTROLLED BY THE NATIONAL WEATHER SERVICE.
    USE DATA WITH CAUTION...ESPECIALLY DEWPOINT AND RELATIVE
    HUMIDITY OBSERVATIONS.

INZ001>003-010>013-019-020-210000-
NORTHWEST INDIANA

CITY           SKY/WX    TMP DP  RH WIND       PRES   REMARKS
GARY /AIRPORT/ MOCLDY    66  41  39 MISG      30.01S
KNOX *+        PTCLDY    61  18  18 SE9       30.04S
LA PORTE +     CLOUDY    62  42  47 S8        30.05R

$$

LMZ046-743>745-210000-
SOUTHERN LAKE MICHIGAN

STATION/POSITION TIME  TEMP    WIND        PRES    WAVE
                       AIR SEA DIR/SP/G            HT
                 (UTC) (F)     (DEG/KT/KT) (MB)    (FT)
BURNS HARBOR     2240   64     140/  9/ 15 1016.9S
MICHIGAN CITY    2230   64     120/ 12/ 15   N/A

$$

INZ004-005-014>016-021>024-210000-
NORTH CENTRAL INDIANA

CITY           SKY/WX    TMP DP  RH WIND       PRES   REMARKS
ELKHART        CLEAR     63  41  45 SE13      30.07F
GOSHEN         CLOUDY    60  40  47 SE9       30.08S
SOUTH BEND     PTCLDY    61  44  53 SE17      30.07S
WARSAW +       PTCLDY    59  41  51 SE9       30.09R

$$

INZ006>009-017-018-025>027-210000-
NORTHEAST INDIANA

CITY           SKY/WX    TMP DP  RH WIND       PRES   REMARKS
ANGOLA *+      CLEAR     57  39  51 SE10      30.12S
FORT WAYNE     CLOUDY    59  41  51 SE8       30.10F
KENDALLVILLE + CLOUDY    58  40  50 E7        30.11R

$$

INZ028-029-035-036-043>045-051>053-210000-
WEST CENTRAL INDIANA

CITY           SKY/WX    TMP DP  RH WIND       PRES   REMARKS
LAFAYETTE      CLOUDY    63  46  54 SE7       30.04R
TERRE HAUTE    PTCLDY    57  47  69 SE9       30.02F

$$

INZ030>032-037>040-046>048-054>057-064-065-210000-
CENTRAL INDIANA

CITY           SKY/WX    TMP DP  RH WIND       PRES   REMARKS
COLUMBUS       CLEAR     64  48  55 SE6       30.08S
FRANKFORT +    PTCLDY    64  46  52 S8        30.08R
GREENWOOD *+   CLOUDY    64  48  57 SE7       30.08R
INDIANAPOLIS   CLOUDY    63  45  51 SE12      30.06R
-EAGLE CREEK   CLOUDY    64  44  48 SE9       30.06R
KOKOMO +       CLOUDY    60  45  57 SE10      30.08S
MT COMFORT *+  CLOUDY    59  48  67 SE8       30.08S
SHELBYVILLE    CLOUDY    63  46  54 SE7       30.08S

$$

INZ033-034-041-042-049-050-058-059-210000-
EAST CENTRAL INDIANA

CITY           SKY/WX    TMP DP  RH WIND       PRES   REMARKS
MUNCIE         CLOUDY    64  41  42 SE10      30.09F

$$

INZ060-061-067>069-081>083-085>088-210000-
SOUTHWEST INDIANA

CITY           SKY/WX    TMP DP  RH WIND       PRES   REMARKS
EVANSVILLE     PTCLDY    68  49  50 SE5       30.04S
HUNTINGBURG *+ PTCLDY    66  50  56 SE6       30.04F

$$

INZ062-063-066-070>080-084-089>092-210000-
SOUTH CENTRAL AND SOUTHEAST INDIANA

CITY           SKY/WX    TMP DP  RH WIND       PRES   REMARKS
BLOOMINGTON    PTCLDY    65  46  50 SE6       30.05S
MADISON *+     CLOUDY    64  45  48 SE3       30.10S
SEYMOUR +      PTCLDY    66  46  48 SE6       30.06F

$$




USA.gov is the U.S. government's official web portal to all federal, state and local government web resources and services.